GFSCGP_925_temp_159.txt.gz
Temp
13 13 14 14 13 13 13 13 13 13 14 14 13 13 13 13 13 13 13 14 15 15 16 17 17 17 17 17 17 18 18 19 18 17 15 14 14 15 15 15 15 15 15 16
13 14 14 14 13 13 13 13 12 13 14 14 13 13 13 13 14 15 14 15 15 14 14 15 15 15 14 14 15 16 17 18 18 17 16 16 16 15 15 14 15 15 14 15
13 13 13 13 12 12 12 13 13 14 13 13 13 14 14 14 13 13 13 13 13 13 13 13 13 13 12 12 12 13 15 16 17 17 16 15 15 15 15 15 14 15 14 14
12 13 12 12 13 13 12 12 13 13 13 14 13 12 15 15 15 15 15 14 13 12 12 12 12 11 10 10 11 11 13 14 15 15 15 15 15 15 15 15 15 16 16 15
12 11 12 12 13 13 14 12 12 12 12 12 14 13 12 12 14 14 15 15 13 12 11 11 10 10 9 9 9 10 11 12 13 14 14 15 15 15 15 15 15 15 15 15
11 11 12 12 12 13 11 12 11 12 13 12 13 13 12 12 14 14 14 14 12 11 10 9 9 8 8 8 9 9 9 11 12 12 12 13 13 14 14 15 15 16 16 15
10 10 11 11 11 11 13 12 11 12 12 11 10 11 14 13 13 15 15 13 11 9 8 8 7 6 6 6 6 6 7 7 9 11 11 11 11 12 12 13 14 15 15 15
11 10 11 10 12 12 12 13 10 10 10 11 10 11 12 13 14 13 13 10 9 8 7 7 6 5 5 4 4 4 5 5 6 8 9 9 9 9 9 10 11 13 14 14
11 11 11 10 11 13 11 12 12 10 4 8 10 10 12 11 12 11 10 10 8 7 6 6 5 4 4 3 3 3 3 3 3 4 5 7 7 8 7 8 9 9 11 11
10 10 10 11 12 12 11 12 11 10 11 11 11 11 13 12 11 10 9 9 7 6 5 5 4 3 3 2 2 2 1 1 1 1 2 3 5 5 5 7 6 7 7 9
10 11 9 10 10 12 11 11 11 12 10 9 8 11 10 13 11 10 9 8 6 5 4 4 3 3 2 1 1 0 0 0 0 0 1 1 2 3 4 2 3 3 5 6
10 10 8 10 10 10 13 12 12 12 9 9 10 13 13 12 10 10 8 6 4 4 3 2 2 1 0 -1 -1 -2 -1 -2 -2 -2 -1 -0 -0 0 1 2 2 1 2 4
11 9 9 9 10 9 10 10 12 11 9 9 11 12 10 10 9 8 7 5 4 3 2 1 0 -0 -1 -2 -2 -3 -3 -4 -4 -4 -3 -2 -2 -1 -2 -1 -1 -0 -0 1
12 9 10 11 12 9 9 10 10 11 11 11 11 12 12 8 8 6 5 4 3 2 1 0 -1 -2 -2 -3 -4 -4 -5 -5 -5 -5 -4 -4 -4 -3 -3 -3 -2 -2 -0 -1
10 9 10 10 10 9 10 11 10 10 12 11 12 12 13 11 8 7 4 3 2 1 0 -1 -2 -3 -4 -4 -5 -5 -6 -7 -7 -6 -6 -6 -6 -6 -6 -6 -5 -4 -4 -3
9 9 8 9 10 8 10 9 9 10 11 11 12 12 11 6 4 4 4 3 2 0 -1 -2 -3 -3 -4 -5 -6 -7 -8 -8 -8 -8 -7 -8 -8 -8 -8 -7 -7 -5 -5 -5
8 9 8 9 9 8 8 9 10 10 11 11 10 12 8 4 5 5 3 2 1 -1 -2 -3 -4 -5 -6 -7 -7 -9 -9 -9 -9 -8 -9 -9 -9 -9 -9 -9 -9 -8 -8 -7
9 8 9 8 6 8 10 10 11 11 11 11 12 12 11 9 3 1 -0 -1 -1 -2 -3 -4 -6 -7 -8 -8 -9 -10 -9 -9 -9 -9 -10 -10 -10 -10 -10 -10 -9 -9 -9 -8
8 9 9 7 9 9 10 8 7 8 10 11 10 11 2 -1 -0 -2 -3 -3 -4 -5 -6 -7 -8 -9 -9 -10 -10 -10 -10 -10 -10 -10 -11 -11 -11 -11 -10 -10 -10 -9 -9 -8
7 7 8 6 8 9 11 10 6 9 10 11 10 9 0 2 5 4 -4 -4 -5 -6 -7 -8 -9 -9 -10 -10 -11 -10 -10 -11 -11 -12 -12 -12 -12 -12 -11 -10 -10 -10 -9 -8
7 7 8 8 8 6 8 6 8 8 10 7 7 7 1 5 1 -4 -5 -6 -6 -8 -8 -10 -10 -10 -11 -11 -12 -11 -11 -12 -13 -13 -13 -12 -12 -12 -11 -11 -10 -10 -9 -9
6 7 8 8 9 9 4 6 10 8 -0 1 1 1 1 -5 -5 -6 -6 -7 -8 -9 -9 -11 -11 -11 -12 -13 -13 -12 -13 -14 -14 -14 -13 -12 -12 -12 -12 -12 -11 -11 -10 -10
7 9 7 8 8 2 -0 -0 -2 -1 -0 -1 -2 -3 -3 -5 -6 -7 -8 -8 -9 -10 -10 -12 -12 -12 -13 -14 -14 -14 -15 -15 -15 -13 -13 -13 -12 -13 -13 -12 -12 -12 -11 -10
5 4 6 8 3 1 -1 -4 -4 -3 -3 -4 -4 -5 -5 -6 -7 -7 -8 -8 -10 -11 -12 -13 -13 -14 -15 -15 -16 -16 -16 -16 -15 -15 -14 -15 -15 -14 -14 -13 -12 -12 -12 -11
4 4 3 3 1 -2 -1 -3 -5 -5 -5 -6 -6 -6 -7 -6 -7 -7 -9 -11 -12 -13 -14 -14 -15 -15 -16 -16 -16 -17 -17 -16 -16 -16 -16 -16 -16 -15 -15 -14 -14 -13 -12 -11
-0 3 6 7 2 4 1 -3 -4 -5 -6 -7 -8 -8 -8 -7 -8 -10 -11 -12 -13 -14 -15 -15 -16 -16 -17 -16 -17 -17 -17 -17 -17 -18 -17 -17 -17 -17 -16 -16 -16 -15 -14 -13

GFSCGP_925_temp_162.txt.gz
Temp
15 15 15 16 17 17 18 17 18 16 17 17 18 18 19 20 19 19 20 21 22 22 21 18 17 16 15 15 15 16 17 17 17 18 18 18 18 17 16 15 15 15 15 14
14 15 17 17 16 16 16 16 16 16 16 16 18 18 18 19 19 19 21 22 21 21 20 18 16 15 14 14 13 14 14 15 16 17 17 18 18 18 17 17 16 14 14 14
15 16 17 16 15 15 16 16 17 16 16 17 17 18 19 19 18 18 18 19 19 18 18 17 16 14 13 12 12 12 13 13 14 15 16 17 17 17 16 17 16 15 14 14
15 16 15 15 15 16 15 16 16 15 16 16 17 17 19 19 20 19 19 20 20 17 16 15 14 13 12 11 11 11 11 11 12 14 15 16 17 18 18 17 17 16 15 14
14 13 14 14 15 15 16 15 15 15 15 15 16 13 18 16 17 19 20 19 18 17 16 14 13 11 10 9 9 9 10 10 10 11 13 15 15 16 16 16 16 16 15 15
15 12 14 16 15 15 14 14 14 14 15 13 16 15 19 19 19 21 20 18 16 16 14 13 11 10 9 8 8 8 9 8 8 9 10 11 11 12 13 12 14 15 15 15
13 13 13 13 14 13 14 15 13 13 13 14 15 16 18 18 19 19 20 16 16 14 14 13 11 10 8 7 7 7 7 7 7 7 8 9 9 10 11 10 10 11 12 12
13 12 13 13 15 14 14 15 15 14 14 16 13 14 18 18 20 18 16 17 14 13 12 11 9 8 7 6 6 6 6 6 5 5 6 7 7 8 8 8 9 9 9 9
13 14 13 14 14 16 14 13 16 13 9 13 16 15 16 16 17 16 15 15 14 12 11 10 8 7 6 5 5 4 4 4 4 4 4 5 5 5 6 6 6 6 7 7
13 13 12 13 13 14 14 16 11 12 13 13 16 16 18 16 17 18 15 15 13 11 10 9 7 6 5 4 3 3 3 3 2 2 3 3 3 3 3 4 4 4 4 5
13 13 10 11 12 13 12 13 13 15 13 14 15 17 19 19 17 17 16 15 13 11 9 8 6 5 3 3 2 2 1 1 1 0 1 2 2 2 2 2 2 2 2 2
13 13 12 12 12 12 15 14 14 14 13 14 15 16 16 17 18 18 16 14 12 10 8 7 5 4 3 2 1 1 -0 -0 -1 -1 -0 0 1 -0 0 0 0 -0 0 1
13 10 11 10 11 10 12 14 14 15 14 13 13 16 18 17 17 16 15 12 10 8 7 6 4 3 2 1 -0 -0 -2 -2 -3 -2 -2 -1 -2 -2 -2 -2 -2 -2 -1 -1
13 12 12 14 15 14 11 12 13 13 11 13 14 16 18 15 14 13 13 11 9 7 6 5 4 2 0 -1 -1 -2 -3 -4 -4 -4 -3 -3 -4 -4 -4 -4 -4 -3 -3 -2
12 10 12 13 14 13 14 13 12 12 13 13 15 15 16 17 16 14 14 11 8 7 5 5 3 1 -1 -1 -2 -3 -4 -5 -5 -5 -4 -5 -5 -5 -5 -5 -5 -5 -4 -4
11 11 11 10 12 12 12 13 13 13 13 13 14 15 17 17 17 15 12 9 8 7 5 3 1 -0 -2 -3 -4 -5 -5 -6 -6 -5 -6 -6 -6 -6 -6 -6 -6 -6 -6 -6
10 10 9 10 12 11 9 11 12 13 14 14 13 15 16 16 13 12 11 9 8 7 4 2 1 -1 -3 -5 -6 -6 -6 -7 -6 -6 -7 -7 -7 -7 -7 -7 -7 -7 -6 -6
10 9 10 10 8 9 13 14 13 13 14 14 14 15 15 15 15 12 12 10 8 5 3 0 -2 -4 -5 -6 -7 -7 -7 -7 -7 -7 -8 -8 -8 -8 -8 -8 -7 -7 -7 -6
11 10 9 9 10 12 12 12 12 12 12 14 14 14 14 14 7 8 5 7 6 3 0 -2 -4 -5 -7 -7 -8 -7 -8 -8 -8 -8 -9 -9 -9 -9 -9 -8 -8 -8 -7 -6
8 9 9 9 10 10 14 14 10 12 11 15 14 13 14 7 9 13 2 2 0 -2 -4 -5 -6 -7 -8 -9 -9 -8 -8 -9 -9 -10 -10 -10 -10 -10 -9 -9 -9 -8 -8 -7
8 8 8 8 8 8 8 9 9 9 12 13 14 13 13 8 12 5 1 -0 -2 -4 -6 -7 -7 -8 -9 -10 -9 -9 -10 -10 -11 -12 -12 -12 -12 -11 -10 -10 -10 -9 -9 -8
8 8 8 8 8 9 12 7 10 12 8 5 6 8 8 6 -1 -0 -1 -3 -4 -6 -7 -8 -8 -9 -11 -11 -10 -10 -11 -13 -13 -13 -13 -12 -12 -12 -11 -11 -10 -10 -10 -9
9 11 11 11 12 8 8 9 3 2 3 4 3 2 2 -1 -2 -3 -4 -5 -6 -7 -8 -9 -9 -10 -12 -13 -12 -12 -14 -15 -14 -13 -13 -13 -13 -13 -13 -12 -11 -11 -10 -10
7 8 10 10 11 7 5 2 -0 -0 1 -1 -1 -0 -1 -2 -3 -4 -5 -6 -7 -9 -10 -11 -11 -12 -13 -15 -15 -15 -15 -15 -14 -14 -15 -14 -14 -14 -13 -13 -12 -12 -12 -11
10 7 7 7 7 3 4 2 1 -2 -2 -3 -3 -3 -2 -3 -4 -5 -6 -8 -9 -11 -12 -12 -12 -13 -15 -15 -16 -15 -15 -15 -15 -16 -16 -15 -15 -15 -14 -14 -14 -14 -13 -13
6 8 8 10 8 8 8 2 -1 -2 -3 -3 -5 -5 -4 -4 -5 -7 -8 -9 -11 -12 -13 -14 -14 -15 -16 -16 -16 -16 -16 -16 -16 -17 -17 -17 -16 -16 -15 -15 -15 -15 -15 -15

GFSCGP_925_temp_165.txt.gz
Temp
16 16 16 18 18 20 19 21 21 21 20 19 20 21 22 22 22 22 22 22 23 24 25 22 19 18 17 17 16 17 17 18 18 19 20 20 20 20 19 18 16 15 15 15
15 15 18 19 19 18 18 18 19 20 19 18 20 20 21 21 21 21 22 22 23 24 24 21 19 17 16 15 15 15 15 16 16 18 19 19 20 20 20 19 18 17 15 15
16 17 18 18 17 17 17 17 19 19 18 18 18 18 20 21 22 22 22 22 22 22 21 20 18 16 15 14 13 14 13 14 14 16 17 18 18 18 18 18 18 18 16 15
17 19 17 17 17 17 16 18 18 18 16 18 18 18 21 21 21 19 20 20 21 20 19 18 17 15 14 12 12 12 12 12 13 13 16 17 18 19 19 19 18 17 17 16
16 16 16 16 17 18 17 18 17 17 16 16 18 16 20 21 20 21 22 21 22 20 19 18 16 14 12 11 11 11 11 11 11 12 13 14 14 14 14 15 15 15 16 16
16 14 16 17 17 17 16 16 16 16 16 15 17 18 20 21 20 21 21 21 20 18 17 16 14 13 12 10 10 10 10 9 9 10 11 11 12 13 12 12 12 13 14 14
15 14 15 15 15 15 15 15 14 14 14 15 18 18 19 22 22 22 21 20 18 18 16 15 14 13 11 10 9 9 9 8 8 8 9 9 10 10 11 10 11 11 11 11
14 13 14 15 16 15 14 16 15 14 15 17 16 16 19 21 22 22 21 20 18 17 16 14 13 11 10 9 8 8 8 7 7 7 7 7 7 7 8 8 8 8 9 9
15 15 16 15 16 17 14 14 17 15 12 14 18 18 19 18 19 21 18 19 17 16 14 13 11 10 9 8 7 6 6 6 5 5 6 6 6 6 6 6 6 6 6 6
16 15 14 14 15 16 15 17 13 12 13 14 17 18 19 19 19 19 18 17 17 16 14 12 11 9 8 6 6 5 5 4 4 4 4 4 4 4 4 4 4 4 4 4
15 15 11 13 13 14 14 13 15 15 14 15 15 18 21 21 21 20 20 18 17 15 13 12 10 8 6 6 5 5 4 3 2 2 2 3 3 2 2 2 2 2 2 2
15 15 13 12 14 15 15 14 15 13 13 15 15 17 20 19 20 21 20 20 19 16 14 12 10 8 6 5 4 4 2 2 1 1 1 1 1 1 1 0 0 -0 0 1
14 10 11 11 12 12 13 14 15 15 15 14 13 16 20 21 19 20 19 19 18 15 13 11 9 7 6 4 3 3 1 0 -1 -1 -0 -0 -1 -1 -1 -1 -2 -2 -1 -1
14 13 13 14 16 14 12 13 14 14 12 13 14 16 18 19 18 18 19 18 17 13 12 10 8 7 5 3 2 1 0 -1 -2 -1 -1 -2 -3 -3 -3 -3 -3 -3 -3 -2
13 10 13 14 15 16 14 14 13 13 14 14 15 16 18 19 19 19 18 18 15 12 11 10 9 7 4 2 1 -1 -1 -2 -3 -2 -2 -3 -4 -4 -4 -4 -4 -4 -4 -4
12 11 12 11 14 14 13 14 14 14 14 14 15 15 18 19 19 19 19 17 14 13 11 10 8 6 3 1 0 -2 -2 -3 -4 -3 -4 -5 -5 -5 -5 -5 -5 -5 -4 -4
11 10 10 11 12 13 11 13 14 14 15 15 14 15 17 17 17 17 17 17 14 12 11 9 7 4 2 -0 -2 -3 -4 -4 -4 -4 -5 -6 -6 -6 -6 -6 -5 -5 -5 -4
11 10 10 11 11 9 13 16 15 14 15 16 16 15 16 17 17 17 17 16 14 12 10 8 5 3 0 -2 -4 -5 -5 -5 -5 -5 -6 -7 -7 -7 -7 -6 -6 -6 -6 -5
11 9 10 10 10 12 14 15 15 14 14 15 15 16 16 16 16 15 15 14 15 13 10 6 3 0 -3 -4 -5 -5 -5 -6 -6 -7 -7 -8 -8 -8 -8 -7 -7 -7 -7 -6
11 11 10 10 10 10 14 16 14 14 11 15 15 15 15 15 14 15 15 9 8 7 4 2 -1 -3 -4 -5 -6 -6 -6 -6 -7 -8 -9 -9 -9 -9 -8 -8 -8 -8 -8 -7
8 8 9 10 10 10 11 11 13 9 13 14 14 14 15 14 15 12 6 5 3 1 -1 -2 -4 -4 -5 -7 -6 -6 -7 -8 -10 -10 -10 -10 -10 -10 -9 -9 -9 -9 -8 -8
9 9 9 9 9 10 13 10 11 13 13 12 9 10 9 9 5 4 4 2 0 -2 -3 -4 -5 -6 -7 -8 -7 -7 -8 -11 -11 -11 -11 -11 -12 -11 -11 -11 -10 -10 -9 -9
10 12 12 11 12 12 12 13 12 11 11 9 8 7 6 3 3 2 1 -1 -2 -4 -5 -5 -6 -8 -9 -9 -8 -9 -12 -13 -13 -12 -12 -12 -12 -12 -12 -11 -11 -10 -10 -10
10 12 11 11 12 12 11 9 6 6 6 5 3 3 3 3 1 -0 -1 -2 -4 -6 -7 -7 -9 -10 -12 -12 -13 -13 -14 -13 -13 -13 -14 -13 -13 -13 -13 -12 -12 -12 -12 -11
11 10 9 9 10 11 10 8 8 5 2 1 0 1 2 1 -1 -2 -3 -5 -6 -8 -9 -10 -10 -11 -13 -14 -15 -15 -14 -14 -15 -15 -14 -14 -14 -14 -13 -13 -13 -13 -13 -13
10 9 9 10 11 11 11 5 5 3 1 0 -1 -2 -1 -1 -2 -4 -6 -7 -8 -10 -10 -11 -12 -13 -14 -15 -16 -15 -15 -15 -15 -15 -15 -15 -15 -15 -14 -15 -14 -14 -14 -14

GFSCGP_925_temp_168.txt.gz
Temp
15 14 14 16 17 18 19 18 18 19 20 19 17 18 19 20 18 18 18 19 19 20 23 20 19 18 17 17 16 16 16 16 16 17 18 19 19 19 19 19 19 18 16 16
14 14 16 18 18 17 17 17 17 20 19 18 17 17 18 19 19 19 19 19 19 19 20 18 18 17 16 15 14 14 14 14 15 15 16 17 18 19 19 19 18 18 17 16
15 17 17 18 17 17 16 16 17 17 18 18 16 15 17 18 20 19 20 19 19 19 20 16 16 15 14 13 13 13 12 12 13 14 16 17 18 18 19 19 18 18 17 17
15 18 17 16 17 17 16 17 17 17 16 14 16 12 17 20 19 19 19 18 18 18 18 16 15 14 13 12 12 12 11 11 12 13 14 15 15 15 14 15 16 17 16 15
15 16 16 16 16 17 16 17 17 16 15 15 15 15 16 17 18 17 17 17 17 16 16 15 14 13 11 11 10 11 10 10 10 11 12 12 13 13 13 14 14 14 14 14
15 14 15 16 17 17 16 15 16 16 14 13 14 15 15 18 18 19 19 18 17 16 15 14 14 12 11 10 10 10 9 8 9 9 10 10 10 10 10 10 11 11 11 11
14 14 15 15 15 16 15 14 12 12 12 11 16 14 16 19 19 20 18 18 16 15 14 12 12 11 10 9 9 9 8 7 8 8 8 8 8 8 8 8 8 8 8 8
13 12 14 14 15 14 14 14 12 12 12 14 14 13 16 18 19 20 20 16 15 14 14 12 11 11 9 8 8 8 7 7 6 7 7 7 7 7 6 6 6 6 6 6
13 14 15 14 15 15 14 13 15 13 10 11 13 15 16 18 18 18 17 15 14 14 12 11 11 10 9 8 7 6 6 6 5 5 6 5 5 5 5 5 5 4 4 4
16 14 13 14 14 14 14 15 13 12 10 11 13 14 15 16 16 17 15 15 14 13 11 10 10 9 8 7 6 5 5 4 4 4 4 4 3 3 3 3 3 3 2 3
15 14 11 11 12 13 14 13 14 14 12 11 11 13 18 18 17 16 15 15 14 12 11 9 9 8 7 6 5 5 4 3 3 3 3 2 2 2 2 1 1 1 1 1
14 13 10 11 14 14 15 14 14 13 12 12 14 14 18 17 19 19 16 16 14 13 11 9 9 7 6 6 5 4 3 2 2 2 1 1 1 1 0 -0 -1 -1 -1 -1
14 11 10 10 10 11 12 13 14 14 12 11 12 14 17 17 17 18 17 18 14 12 10 9 8 7 6 5 4 3 2 1 1 0 0 -0 -1 -1 -2 -2 -2 -2 -2 -2
14 11 12 13 14 10 10 12 13 13 12 12 12 13 15 15 15 17 16 16 14 11 10 9 6 6 7 5 3 2 0 -0 -1 -1 -1 -2 -2 -3 -3 -3 -3 -3 -3 -2
12 10 12 12 13 14 13 12 12 12 13 12 14 14 15 16 15 15 15 14 14 11 10 8 6 5 6 4 2 1 -0 -1 -2 -2 -2 -3 -3 -3 -4 -4 -4 -4 -3 -3
12 10 10 11 12 12 12 11 12 12 13 13 13 13 16 16 16 15 15 15 13 12 10 9 8 6 4 2 1 -0 -1 -2 -2 -3 -4 -4 -4 -4 -4 -4 -4 -4 -4 -4
11 11 10 10 11 10 10 12 12 12 12 13 12 13 15 14 15 15 14 14 15 11 10 9 8 6 3 2 1 -1 -2 -3 -3 -4 -4 -5 -5 -5 -5 -5 -5 -5 -5 -5
11 10 10 10 7 10 12 13 13 13 13 13 14 14 14 14 15 15 13 13 12 11 11 9 6 4 2 1 -1 -2 -3 -4 -4 -5 -5 -6 -6 -6 -6 -6 -6 -6 -6 -6
12 10 10 10 10 11 11 12 12 12 12 14 13 14 14 14 14 13 14 11 12 11 9 9 6 2 -0 -2 -3 -4 -5 -5 -5 -6 -7 -7 -7 -7 -7 -7 -7 -7 -7 -7
10 10 9 9 9 10 12 13 13 13 9 12 14 13 13 13 11 13 13 11 5 4 5 3 1 -2 -3 -4 -4 -5 -5 -6 -7 -7 -8 -8 -8 -8 -8 -8 -8 -8 -8 -8
8 8 9 9 9 7 11 11 11 9 11 13 11 12 12 11 12 8 3 2 1 -0 -1 -2 -3 -4 -5 -5 -5 -6 -6 -7 -8 -9 -9 -9 -9 -9 -9 -9 -9 -9 -9 -9
8 8 8 8 8 9 10 10 10 11 13 12 10 10 9 9 6 4 1 -1 -2 -3 -3 -4 -4 -6 -6 -6 -6 -7 -8 -10 -10 -10 -10 -10 -9 -10 -10 -10 -10 -10 -10 -10
8 9 8 8 8 10 9 9 8 9 9 9 9 7 7 6 3 1 -1 -2 -3 -3 -4 -5 -6 -7 -7 -7 -6 -8 -11 -11 -11 -11 -10 -10 -10 -10 -10 -11 -11 -11 -11 -11
9 9 8 9 9 8 9 10 9 6 7 5 4 4 3 4 1 0 -2 -3 -4 -5 -6 -7 -8 -9 -10 -9 -8 -10 -12 -11 -11 -11 -11 -12 -12 -11 -12 -12 -12 -12 -12 -13
6 7 6 5 7 8 8 7 7 5 4 3 1 1 1 1 -0 -1 -3 -4 -6 -7 -8 -9 -10 -11 -12 -12 -13 -13 -13 -12 -12 -12 -13 -13 -13 -13 -13 -13 -13 -13 -13 -13
5 7 7 8 8 7 8 7 4 3 1 -1 -1 -2 -1 -1 -2 -4 -5 -6 -8 -9 -10 -10 -11 -12 -14 -14 -14 -14 -13 -12 -13 -14 -14 -14 -14 -14 -14 -14 -14 -14 -14 -13

GFSCGP_925_temp_171.txt.gz
Temp
14 13 12 14 15 15 16 16 16 16 18 18 17 15 16 16 16 17 16 16 17 17 20 18 18 18 17 17 17 16 16 15 15 16 17 18 19 19 19 19 19 19 18 18
13 12 14 15 15 15 15 16 15 16 17 17 16 14 15 15 16 16 16 16 16 17 18 16 16 16 15 15 14 14 14 13 14 15 16 16 17 18 18 18 18 17 17 17
12 15 15 15 15 15 15 14 15 16 17 16 15 14 14 15 16 16 16 16 16 16 16 13 13 14 14 13 13 12 12 12 13 14 16 17 17 17 16 15 16 16 16 15
13 15 15 14 15 15 15 15 16 16 14 13 14 11 14 16 15 16 18 16 15 15 14 12 12 12 12 12 12 11 11 11 12 13 14 14 14 13 12 13 13 14 14 14
13 14 14 14 15 15 15 16 15 16 14 14 14 12 12 15 16 16 16 16 15 14 14 12 11 11 11 11 11 10 10 11 11 12 12 12 12 11 11 12 12 12 12 12
13 14 15 15 16 15 15 15 15 14 13 13 13 12 11 15 17 16 17 15 15 13 12 11 11 11 10 10 10 10 10 9 10 10 11 11 11 10 11 11 11 10 10 10
13 13 14 15 15 15 15 13 11 11 12 11 13 13 15 16 17 17 17 16 13 13 12 11 9 9 9 9 9 9 9 8 8 9 9 9 9 9 9 8 8 9 8 8
11 11 13 13 14 14 14 14 12 11 11 12 12 12 13 15 16 16 17 14 13 11 11 10 9 9 9 9 8 8 8 7 7 8 7 8 8 7 7 7 7 6 6 5
12 12 13 13 14 15 13 13 14 12 7 10 11 13 15 15 17 16 14 13 12 11 10 10 9 9 9 8 8 7 7 7 6 6 6 6 6 6 6 5 5 5 5 4
13 12 12 13 14 14 14 14 13 11 10 9 11 12 14 15 15 15 13 13 12 11 10 9 8 8 8 8 7 6 6 6 5 5 5 5 5 5 5 5 5 4 4 3
13 13 10 12 12 13 13 13 13 13 10 10 9 11 13 17 15 15 14 13 12 11 10 9 8 8 8 7 6 6 5 4 4 4 3 4 3 3 3 3 2 2 2 2
13 12 9 11 12 12 15 14 14 13 11 11 11 12 15 15 16 16 15 13 12 12 10 8 8 7 7 6 5 5 4 3 3 2 2 2 2 2 2 2 1 1 1 1
13 10 9 11 10 9 12 12 14 13 11 11 11 14 16 17 15 14 15 13 11 10 8 7 6 5 5 5 5 4 3 2 2 1 2 1 1 1 0 0 -0 -0 -1 -1
14 10 12 12 13 10 9 10 12 13 11 12 12 13 15 14 13 13 15 14 10 10 9 8 7 5 5 5 4 3 2 2 1 0 0 -0 -1 -1 -1 -1 -1 -1 -1 -2
12 11 11 12 12 12 11 11 11 11 12 11 14 13 14 14 13 13 13 13 12 10 9 8 6 5 5 4 4 3 2 1 0 -1 -1 -2 -2 -2 -2 -2 -2 -2 -2 -3
11 9 9 10 10 10 11 11 12 12 12 12 13 13 15 14 13 13 13 13 12 10 10 8 7 6 4 3 2 1 1 1 -1 -2 -2 -3 -3 -3 -3 -3 -3 -3 -3 -3
11 10 9 11 10 10 9 10 11 11 12 12 11 13 14 14 13 13 12 12 13 12 9 8 7 7 5 3 2 1 0 -0 -2 -2 -3 -4 -4 -4 -4 -4 -4 -4 -4 -4
10 10 10 10 8 10 11 12 12 12 13 12 13 13 14 14 14 12 11 11 11 10 10 9 8 8 5 3 1 1 0 -1 -3 -4 -4 -5 -5 -5 -5 -5 -5 -5 -5 -5
11 10 10 10 10 10 10 11 11 10 11 13 12 13 13 13 12 11 11 10 11 10 10 10 10 7 3 1 -0 -1 -3 -3 -4 -5 -5 -6 -6 -6 -6 -6 -6 -6 -6 -6
9 11 10 8 10 9 12 13 12 11 10 11 12 12 12 12 10 12 13 9 8 6 7 6 6 3 0 -2 -2 -2 -4 -5 -5 -6 -6 -7 -7 -7 -7 -7 -7 -7 -7 -7
8 9 9 9 8 6 8 9 9 9 11 13 10 11 12 10 12 9 4 3 -0 -1 -1 -1 -1 -3 -4 -4 -3 -4 -5 -6 -6 -7 -7 -8 -8 -8 -8 -8 -8 -8 -8 -8
8 9 9 8 8 8 8 10 10 12 11 11 9 9 9 8 6 4 2 -1 -2 -4 -4 -4 -5 -5 -5 -4 -4 -6 -7 -8 -7 -8 -8 -8 -9 -9 -9 -8 -9 -9 -9 -9
8 8 7 7 8 9 7 9 9 8 9 10 10 8 8 7 5 2 -0 -3 -4 -4 -4 -5 -6 -6 -5 -5 -5 -8 -10 -8 -9 -10 -10 -9 -9 -10 -10 -10 -10 -10 -10 -10
8 9 8 8 9 7 8 8 9 7 7 7 6 6 4 6 4 2 -2 -3 -4 -5 -6 -7 -7 -8 -8 -7 -8 -7 -9 -9 -10 -10 -11 -11 -11 -11 -11 -11 -11 -11 -11 -12
5 6 7 6 7 8 7 6 7 6 5 5 3 3 2 2 1 -0 -3 -5 -6 -6 -7 -8 -9 -10 -12 -10 -10 -10 -10 -10 -11 -11 -12 -12 -12 -12 -12 -12 -12 -12 -12 -12
3 6 7 8 7 8 9 7 6 3 2 1 -0 -0 -1 -1 -1 -3 -5 -6 -7 -9 -9 -10 -11 -12 -12 -12 -12 -12 -11 -11 -11 -12 -13 -13 -13 -13 -13 -13 -13 -13 -13 -13

GFSCGP_925_temp_174.txt.gz
Temp
14 12 12 14 16 15 15 15 16 16 17 17 15 15 16 15 16 15 15 15 15 15 18 18 17 17 17 17 17 18 17 17 17 17 17 17 18 18 18 18 18 18 18 18
13 12 13 14 15 16 15 15 15 15 17 16 16 15 14 14 15 15 15 14 15 15 14 14 15 15 16 15 16 16 16 16 16 15 16 16 17 16 16 16 17 17 16 16
12 13 14 14 14 14 14 13 14 16 15 15 14 13 14 15 14 14 16 16 17 15 13 11 12 13 13 14 14 14 14 14 14 14 15 16 15 15 15 15 15 15 15 16
13 14 14 13 13 14 13 14 15 15 15 13 14 10 12 14 14 14 14 16 15 14 13 12 11 11 12 12 12 12 12 13 13 13 15 15 15 13 11 12 12 12 13 14
13 13 13 13 14 14 14 14 14 15 14 13 13 11 11 13 14 15 15 14 15 14 12 11 10 11 12 11 11 11 11 12 12 12 13 14 13 11 11 11 12 11 11 11
13 13 13 13 14 14 14 14 14 12 13 12 12 12 10 14 16 16 15 14 13 12 11 10 11 11 10 10 10 10 11 11 11 11 11 12 12 11 11 10 11 10 10 10
13 13 14 15 14 14 14 13 11 11 11 10 12 12 15 14 15 16 16 15 14 11 10 10 8 8 9 9 9 10 10 9 10 10 11 11 11 10 10 9 9 9 9 9
11 12 12 14 14 13 14 14 12 10 11 10 11 11 12 13 15 15 15 15 11 10 10 9 8 8 9 9 9 9 9 8 8 9 9 9 9 9 9 8 8 8 7 7
10 11 13 12 14 15 13 13 13 11 6 8 11 11 13 13 14 15 14 12 10 10 9 9 8 9 9 9 8 9 8 8 8 8 8 8 7 7 8 8 7 7 6 5
12 12 12 13 14 13 13 14 12 8 8 8 11 11 13 15 14 14 13 12 11 10 9 8 8 8 8 8 8 8 8 8 7 6 6 6 6 6 6 6 6 5 5 4
12 12 11 11 11 13 13 13 13 14 9 9 9 11 11 15 14 13 13 13 11 10 9 9 8 8 9 8 8 7 7 7 6 5 5 5 5 4 4 4 4 4 3 3
11 11 9 11 11 11 15 14 14 13 10 10 11 14 14 13 14 16 15 12 11 11 10 9 8 7 7 7 7 6 6 6 5 5 4 3 3 3 3 2 2 2 2 2
12 10 9 10 10 9 11 13 14 13 11 13 11 14 15 14 14 14 15 14 11 9 8 7 6 5 6 6 6 6 6 5 4 3 3 2 2 1 1 1 0 1 1 0
12 11 13 12 13 11 10 12 13 13 11 12 12 14 14 14 13 13 13 13 12 9 8 8 6 6 6 5 6 5 5 4 4 3 2 1 1 0 0 -0 -1 -0 -1 -0
10 9 11 13 12 12 12 12 11 11 12 12 14 12 14 14 13 12 12 12 12 10 8 7 7 6 5 5 5 5 5 4 3 2 1 0 0 -0 -1 -1 -1 -2 -2 -2
10 10 9 10 10 10 10 11 11 11 12 12 12 12 15 14 12 12 11 11 11 10 9 8 7 7 5 5 4 4 4 3 2 1 0 -0 -1 -2 -2 -2 -3 -3 -3 -3
6 9 10 11 9 8 9 10 11 11 12 12 11 13 14 14 12 12 11 12 13 12 9 8 8 8 7 6 5 3 2 2 1 -0 -1 -2 -2 -3 -3 -3 -4 -4 -4 -4
6 6 7 10 9 10 12 13 11 11 12 12 12 13 13 13 13 11 10 12 11 10 10 8 8 8 8 7 5 3 1 1 -0 -1 -2 -2 -3 -4 -4 -4 -4 -5 -5 -5
6 7 8 10 10 10 11 10 11 10 11 13 11 12 13 13 11 10 10 9 10 10 9 10 11 10 9 7 5 2 -0 -0 -2 -3 -3 -4 -4 -5 -5 -5 -6 -6 -6 -6
7 7 8 9 10 10 12 11 10 10 11 11 12 12 12 11 10 12 12 8 8 8 7 6 6 5 4 2 1 -1 -3 -3 -4 -4 -3 -4 -5 -5 -6 -6 -6 -6 -7 -7
8 8 9 10 9 7 8 9 9 10 11 12 10 11 11 10 11 10 5 5 3 2 2 2 2 2 1 -0 -1 -3 -4 -5 -5 -4 -5 -5 -6 -6 -7 -7 -7 -7 -7 -8
7 9 8 9 9 9 8 8 10 11 12 11 8 9 8 8 7 7 3 2 -0 -1 -2 -2 -3 -3 -3 -3 -3 -5 -5 -6 -5 -5 -6 -7 -7 -7 -7 -8 -9 -9 -9 -9
6 8 8 8 8 7 7 9 9 8 10 11 9 7 6 6 6 4 3 -0 -2 -3 -4 -4 -4 -5 -5 -4 -4 -6 -7 -6 -6 -7 -8 -8 -9 -9 -9 -9 -9 -10 -10 -10
6 7 8 7 8 7 8 6 7 6 7 8 6 6 5 7 6 4 1 -1 -3 -4 -5 -5 -6 -7 -7 -6 -5 -4 -7 -7 -7 -8 -10 -10 -10 -10 -10 -10 -10 -10 -11 -11
4 6 6 5 7 7 7 6 7 6 5 6 6 4 3 3 3 2 1 -2 -4 -5 -6 -6 -7 -8 -9 -8 -7 -7 -8 -8 -9 -10 -11 -11 -11 -11 -12 -12 -12 -12 -12 -11
3 6 6 7 7 8 8 8 6 4 3 3 2 3 1 1 1 0 -2 -3 -5 -7 -8 -8 -9 -10 -11 -10 -9 -9 -9 -9 -10 -11 -11 -11 -12 -12 -13 -13 -13 -13 -13 -13

GFSCGP_925_temp_180.txt.gz
Temp
13 13 13 13 14 16 15 15 15 15 16 17 14 14 15 15 15 14 13 13 13 13 16 18 19 18 18 18 18 18 19 18 18 18 18 18 17 17 16 17 17 17 17 17
12 12 13 14 15 16 15 14 14 15 14 15 14 13 13 13 13 14 14 13 13 14 14 15 16 17 17 18 17 17 17 18 18 18 17 16 15 15 15 15 16 16 16 16
12 13 12 14 13 14 14 13 13 16 14 14 13 12 13 14 13 13 13 14 14 15 15 13 13 15 15 15 16 16 17 17 17 16 15 14 13 13 13 13 14 14 14 15
12 13 12 12 12 13 13 13 14 14 14 12 13 10 11 12 13 13 13 13 15 15 12 12 13 13 13 15 15 15 16 16 15 15 15 14 14 13 13 13 13 13 13 13
12 11 11 12 12 13 13 12 13 14 12 12 11 11 10 11 13 14 13 12 13 12 11 11 12 15 14 14 14 14 14 14 14 13 14 14 13 13 12 12 12 12 12 13
12 12 12 12 13 14 12 12 12 10 10 9 10 11 10 13 13 14 14 13 12 12 10 9 12 12 12 12 12 12 12 12 12 13 13 13 13 12 11 10 11 11 11 12
11 12 13 13 12 13 13 12 8 8 8 9 10 10 15 14 14 13 13 13 13 12 11 9 7 8 10 10 11 11 11 11 11 12 12 12 12 11 11 11 11 11 11 11
11 11 11 12 13 12 12 12 11 11 10 10 9 10 12 12 12 12 11 11 11 11 10 8 7 8 9 9 9 9 10 10 10 11 11 11 11 11 11 10 10 10 10 10
10 11 12 12 13 13 12 12 12 10 4 7 9 10 11 11 12 12 12 12 11 10 9 8 7 7 8 9 9 10 10 10 10 10 10 9 10 10 10 10 9 9 9 8
12 12 11 12 13 13 12 13 11 7 8 8 11 10 12 15 14 14 13 13 12 11 10 8 6 7 8 9 9 9 9 10 9 9 9 9 9 9 9 9 8 8 7 7
12 12 10 12 11 12 12 12 12 12 9 9 8 11 10 12 12 13 12 11 11 11 9 8 7 7 8 9 9 9 8 8 8 8 8 8 8 8 8 8 7 7 6 6
11 9 9 11 10 9 13 14 14 13 10 9 10 13 13 12 12 13 12 11 11 11 9 7 7 8 8 8 8 8 8 8 8 8 7 7 7 6 6 6 6 5 5 4
10 9 9 9 10 9 10 12 12 12 10 11 10 13 12 12 13 12 14 14 11 11 10 7 6 6 8 8 8 8 8 8 8 7 7 6 5 5 5 5 4 4 4 3
8 9 10 11 12 10 10 10 12 12 11 13 12 14 13 13 13 11 11 12 11 10 11 8 6 6 7 8 8 8 8 8 8 7 6 5 5 4 4 3 3 2 2 2
8 9 9 10 10 11 10 11 11 12 12 11 13 13 14 14 13 11 11 10 10 10 10 9 8 6 7 7 8 8 9 8 7 6 5 5 4 4 3 2 2 2 1 1
6 8 8 9 9 9 10 10 11 11 12 12 12 13 15 14 11 10 10 9 10 10 10 10 9 7 7 8 8 8 9 8 7 6 5 5 4 3 2 2 1 1 -0 -1
6 6 7 7 7 8 8 10 11 11 12 12 11 13 14 14 11 12 11 10 11 12 10 9 9 9 11 10 10 9 9 7 6 5 5 4 3 2 1 1 0 -1 -1 -2
4 5 6 3 6 7 10 10 10 11 12 12 12 13 14 14 14 12 9 11 11 9 10 9 8 10 13 13 11 10 8 7 6 4 3 2 2 2 1 -0 -1 -2 -2 -3
6 5 3 4 5 9 9 10 10 9 11 12 12 13 13 13 10 10 10 10 12 11 10 10 11 11 11 11 10 9 7 5 4 2 2 1 1 0 -0 -2 -2 -3 -3 -4
6 6 6 -1 4 3 8 11 9 10 9 12 12 12 12 10 9 12 13 8 8 8 10 9 9 8 8 9 8 6 5 3 2 2 1 0 0 -0 -1 -1 -2 -3 -4 -4
5 5 5 5 6 5 7 8 9 9 11 11 10 10 11 10 11 13 8 8 7 7 8 7 6 5 5 5 5 3 3 2 3 1 0 -0 -1 -1 -1 -2 -3 -4 -5 -5
3 0 2 3 5 5 7 7 8 10 9 9 10 9 8 7 7 6 5 4 5 3 4 3 2 3 3 3 3 1 0 1 0 -1 -1 -2 -2 -3 -3 -3 -4 -5 -6 -6
3 5 4 5 5 7 6 7 6 5 6 6 8 7 7 5 5 5 4 3 2 3 3 2 2 1 1 1 1 -0 -1 -1 -2 -3 -3 -4 -4 -5 -4 -5 -5 -7 -7 -7
4 4 5 5 6 6 7 6 5 6 6 8 6 4 6 5 5 4 3 2 1 1 0 1 -1 -2 -2 -1 -1 -0 -1 -2 -3 -4 -5 -6 -6 -6 -6 -6 -6 -7 -8 -8
4 4 2 3 6 5 5 6 5 5 5 4 3 3 5 3 4 2 2 1 -0 -0 -0 -1 -3 -3 -2 -3 -3 -3 -3 -4 -5 -6 -7 -7 -7 -7 -8 -8 -7 -8 -8 -8
1 3 3 5 6 5 6 5 5 4 2 4 1 2 2 2 2 1 -0 0 0 -1 -2 -3 -3 -3 -4 -5 -5 -5 -5 -5 -6 -8 -9 -9 -9 -9 -9 -9 -10 -10 -9 -10